ANA1895 RJTT-RJTH

Flight info

Callsign ANA1895
Flight time 0h 32m
Altitude 20000
Route VAMOS XAC/N0387F190 V18 SANGO
Aircraft A320/M-SDE3FGHIRWY/LB1

Departure

Time 2026-05-07 13:08
Airport Tokyo Haneda International Airport (RJTT)

Arrival

Time 2026-05-07 13:41
Airport Hachijojima Airport (RJTH)
Time Latitude Longitude Altitude Speed Heading
2026-05-07 12:51 35.55207 139.78902 28 ft 0 kts 240°
2026-05-07 13:00 35.55213 139.78914 27 ft 2 kts 239°
2026-05-07 13:00 35.55222 139.78932 27 ft 2 kts 240°
2026-05-07 13:01 35.55230 139.78949 27 ft 2 kts 241°
2026-05-07 13:01 35.55238 139.78967 27 ft 2 kts 240°
2026-05-07 13:01 35.55245 139.78985 27 ft 2 kts 265°
2026-05-07 13:01 35.55241 139.79004 27 ft 2 kts 321°
2026-05-07 13:02 35.55235 139.79010 28 ft 0 kts 329°
2026-05-07 13:03 35.55236 139.79010 28 ft 0 kts 330°
2026-05-07 13:03 35.55287 139.78974 28 ft 15 kts 330°
2026-05-07 13:03 35.55380 139.78935 28 ft 14 kts 12°
2026-05-07 13:04 35.55439 139.79019 27 ft 13 kts 59°
2026-05-07 13:04 35.55487 139.79117 26 ft 14 kts 56°
2026-05-07 13:04 35.55563 139.79126 27 ft 11 kts 334°
2026-05-07 13:04 35.55638 139.79075 29 ft 15 kts 330°
2026-05-07 13:05 35.55724 139.79014 28 ft 14 kts 330°
2026-05-07 13:05 35.55809 139.78954 26 ft 18 kts 329°
2026-05-07 13:05 35.55925 139.78868 24 ft 19 kts 329°
2026-05-07 13:05 35.56038 139.78790 25 ft 18 kts 330°
2026-05-07 13:06 35.56142 139.78714 24 ft 17 kts 330°
2026-05-07 13:06 35.56242 139.78644 24 ft 16 kts 330°
2026-05-07 13:06 35.56332 139.78582 28 ft 15 kts 329°
2026-05-07 13:06 35.56424 139.78569 27 ft 13 kts 34°
2026-05-07 13:07 35.56468 139.78653 28 ft 10 kts 62°
2026-05-07 13:07 35.56471 139.78728 30 ft 13 kts 113°
2026-05-07 13:07 35.56432 139.78768 30 ft 1 kts 149°
2026-05-07 13:07 35.56279 139.78874 27 ft 64 kts 150°
2026-05-07 13:08 35.55686 139.79292 28 ft 129 kts 150°
2026-05-07 13:08 35.54791 139.79877 367 ft 150 kts 156°
2026-05-07 13:08 35.53848 139.80484 1019 ft 160 kts 158°
2026-05-07 13:08 35.52830 139.81136 1744 ft 170 kts 159°
2026-05-07 13:09 35.51787 139.81846 2308 ft 179 kts 157°
2026-05-07 13:09 35.51333 139.82175 2429 ft 188 kts 156°
2026-05-07 13:09 35.50313 139.82929 2686 ft 207 kts 155°
2026-05-07 13:10 35.49001 139.83894 3020 ft 233 kts 155°
2026-05-07 13:10 35.47531 139.84957 3463 ft 256 kts 157°
2026-05-07 13:10 35.45812 139.85550 4131 ft 259 kts 183°
2026-05-07 13:10 35.44070 139.85147 4953 ft 255 kts 206°
2026-05-07 13:11 35.42479 139.84222 5809 ft 258 kts 209°
2026-05-07 13:11 35.40839 139.83226 6723 ft 261 kts 210°
2026-05-07 13:11 35.39227 139.82239 7592 ft 263 kts 210°
2026-05-07 13:11 35.37586 139.81234 8495 ft 265 kts 210°
2026-05-07 13:12 35.35921 139.80216 9274 ft 269 kts 210°
2026-05-07 13:12 35.34235 139.79189 10186 ft 272 kts 210°
2026-05-07 13:12 35.32476 139.78116 10573 ft 295 kts 210°
2026-05-07 13:12 35.30563 139.76950 10876 ft 317 kts 210°
2026-05-07 13:13 35.28551 139.75733 11501 ft 326 kts 209°
2026-05-07 13:13 35.26500 139.74499 12271 ft 331 kts 209°
2026-05-07 13:13 35.24422 139.73252 13073 ft 334 kts 209°
2026-05-07 13:13 35.22321 139.71991 13845 ft 338 kts 209°
2026-05-07 13:14 35.20201 139.70716 14495 ft 342 kts 209°
2026-05-07 13:14 35.18050 139.69420 15123 ft 347 kts 209°
2026-05-07 13:14 35.15868 139.68105 15738 ft 352 kts 209°
2026-05-07 13:14 35.13652 139.66775 16346 ft 358 kts 208°
2026-05-07 13:15 35.11422 139.65439 16925 ft 363 kts 208°
2026-05-07 13:15 35.09114 139.64056 17507 ft 368 kts 208°
2026-05-07 13:15 35.06795 139.62665 18106 ft 373 kts 208°
2026-05-07 13:15 35.04446 139.61251 18622 ft 378 kts 208°
2026-05-07 13:16 35.02080 139.59828 19181 ft 381 kts 208°
2026-05-07 13:16 34.99697 139.58393 19692 ft 384 kts 208°
2026-05-07 13:16 34.97300 139.56951 19873 ft 384 kts 208°
2026-05-07 13:16 34.94868 139.55491 19926 ft 395 kts 208°
2026-05-07 13:17 34.92416 139.54026 19931 ft 399 kts 208°
2026-05-07 13:17 34.89915 139.52535 19930 ft 400 kts 208°
2026-05-07 13:17 34.87415 139.51044 19931 ft 400 kts 208°
2026-05-07 13:17 34.84914 139.49553 19936 ft 400 kts 208°
2026-05-07 13:18 34.82416 139.48066 19937 ft 400 kts 208°
2026-05-07 13:18 34.79913 139.46577 19935 ft 400 kts 208°
2026-05-07 13:18 34.77414 139.45088 19939 ft 400 kts 208°
2026-05-07 13:18 34.74906 139.43617 19935 ft 401 kts 205°
2026-05-07 13:19 34.72241 139.42577 19943 ft 404 kts 194°
2026-05-07 13:19 34.69438 139.42186 19945 ft 408 kts 183°
2026-05-07 13:19 34.66607 139.42462 19941 ft 411 kts 173°
2026-05-07 13:19 34.63790 139.43119 19944 ft 411 kts 172°
2026-05-07 13:20 34.60982 139.43772 19945 ft 411 kts 172°
2026-05-07 13:20 34.58170 139.44421 19946 ft 411 kts 172°
2026-05-07 13:20 34.55361 139.45066 19942 ft 411 kts 172°
2026-05-07 13:20 34.53502 139.45493 19944 ft 411 kts 172°
2026-05-07 13:21 34.49747 139.46356 19948 ft 411 kts 172°
2026-05-07 13:21 34.47880 139.46786 19949 ft 410 kts 172°
2026-05-07 13:21 34.45078 139.47430 19950 ft 410 kts 172°
2026-05-07 13:21 34.42271 139.48075 19950 ft 410 kts 172°
2026-05-07 13:22 34.39465 139.48719 19950 ft 410 kts 172°
2026-05-07 13:22 34.36659 139.49363 19954 ft 410 kts 172°
2026-05-07 13:22 34.33855 139.50008 19956 ft 410 kts 172°
2026-05-07 13:22 34.31050 139.50653 19957 ft 410 kts 172°
2026-05-07 13:23 34.28250 139.51295 19961 ft 410 kts 172°
2026-05-07 13:23 34.25445 139.51938 19963 ft 410 kts 172°
2026-05-07 13:23 34.22646 139.52582 19968 ft 410 kts 172°
2026-05-07 13:23 34.19845 139.53226 19969 ft 409 kts 172°
2026-05-07 13:24 34.17048 139.53868 19970 ft 409 kts 172°
2026-05-07 13:24 34.14255 139.54508 19968 ft 409 kts 172°
2026-05-07 13:24 34.11460 139.55143 19973 ft 408 kts 173°
2026-05-07 13:24 34.08671 139.55775 19969 ft 408 kts 172°
2026-05-07 13:25 34.05928 139.56674 19973 ft 411 kts 163°
2026-05-07 13:25 34.03256 139.57927 19971 ft 412 kts 162°
2026-05-07 13:25 34.00589 139.59181 19971 ft 411 kts 162°
2026-05-07 13:25 33.97926 139.60428 19970 ft 411 kts 162°
2026-05-07 13:26 33.95256 139.61673 19973 ft 409 kts 162°
2026-05-07 13:26 33.92650 139.62887 19967 ft 398 kts 162°
2026-05-07 13:26 33.90084 139.64082 19411 ft 397 kts 162°
2026-05-07 13:26 33.87535 139.65269 19474 ft 392 kts 162°
2026-05-07 13:27 33.84985 139.66451 19787 ft 395 kts 162°
2026-05-07 13:27 33.82408 139.67639 19207 ft 399 kts 162°
2026-05-07 13:27 33.79813 139.68836 17962 ft 400 kts 162°
2026-05-07 13:27 33.77223 139.70038 16728 ft 397 kts 163°
2026-05-07 13:28 33.74668 139.71228 15641 ft 390 kts 163°
2026-05-07 13:28 33.72169 139.72389 14913 ft 376 kts 163°
2026-05-07 13:28 33.69796 139.73495 14403 ft 357 kts 163°
2026-05-07 13:28 33.67530 139.74551 13892 ft 341 kts 164°
2026-05-07 13:29 33.65361 139.75554 13356 ft 330 kts 164°
2026-05-07 13:29 33.63222 139.76536 12855 ft 328 kts 164°
2026-05-07 13:29 33.61095 139.77514 12350 ft 326 kts 164°
2026-05-07 13:29 33.58989 139.78485 11913 ft 324 kts 164°
2026-05-07 13:30 33.56884 139.79460 11435 ft 324 kts 164°
2026-05-07 13:30 33.54782 139.80426 10923 ft 323 kts 166°
2026-05-07 13:30 33.52642 139.81023 10667 ft 308 kts 178°
2026-05-07 13:30 33.50595 139.81105 10548 ft 290 kts 187°
2026-05-07 13:31 33.48589 139.80988 10387 ft 280 kts 187°
2026-05-07 13:31 33.48366 139.80976 10355 ft 280 kts 187°
2026-05-07 13:31 33.46758 139.80881 9936 ft 282 kts 187°
2026-05-07 13:31 33.44830 139.80770 9815 ft 275 kts 187°
2026-05-07 13:32 33.42930 139.80663 9681 ft 272 kts 187°
2026-05-07 13:32 33.41040 139.80560 9556 ft 272 kts 186°
2026-05-07 13:32 33.39143 139.80827 9218 ft 281 kts 168°
2026-05-07 13:32 33.37369 139.81885 8736 ft 292 kts 148°
2026-05-07 13:33 33.35950 139.83662 8236 ft 301 kts 133°
2026-05-07 13:33 33.34706 139.85643 7923 ft 296 kts 132°
2026-05-07 13:33 33.33476 139.87612 7498 ft 294 kts 133°
2026-05-07 13:33 33.32250 139.89567 7091 ft 293 kts 133°
2026-05-07 13:34 33.31030 139.91501 6697 ft 290 kts 133°
2026-05-07 13:34 33.28481 139.95158 5857 ft 279 kts 147°
2026-05-07 13:34 33.26870 139.96356 5447 ft 268 kts 162°
2026-05-07 13:35 33.25163 139.97223 5017 ft 266 kts 163°
2026-05-07 13:35 33.23470 139.98087 4572 ft 262 kts 163°
2026-05-07 13:35 33.21831 139.98914 3629 ft 251 kts 168°
2026-05-07 13:35 33.20231 139.99090 3016 ft 217 kts 197°
2026-05-07 13:36 33.18984 139.98425 2802 ft 180 kts 220°
2026-05-07 13:36 33.18145 139.97323 2708 ft 177 kts 239°
2026-05-07 13:36 33.17654 139.96030 2563 ft 168 kts 244°
2026-05-07 13:36 33.17204 139.94763 2323 ft 162 kts 244°
2026-05-07 13:37 33.16780 139.93572 2071 ft 149 kts 243°
2026-05-07 13:37 33.16402 139.92511 2025 ft 131 kts 242°
2026-05-07 13:37 33.16046 139.91519 2018 ft 128 kts 242°
2026-05-07 13:37 33.15698 139.90548 2019 ft 127 kts 242°
2026-05-07 13:38 33.15352 139.89581 2014 ft 126 kts 242°
2026-05-07 13:38 33.15007 139.88617 2016 ft 126 kts 242°
2026-05-07 13:38 33.14662 139.87652 1934 ft 127 kts 242°
2026-05-07 13:38 33.14318 139.86692 1752 ft 125 kts 242°
2026-05-07 13:39 33.13976 139.85737 1531 ft 125 kts 241°
2026-05-07 13:39 33.13631 139.84774 1323 ft 126 kts 240°
2026-05-07 13:39 33.13289 139.83817 1151 ft 125 kts 240°
2026-05-07 13:39 33.12949 139.82868 933 ft 123 kts 242°
2026-05-07 13:40 33.12611 139.81927 729 ft 124 kts 242°
2026-05-07 13:40 33.12273 139.80976 538 ft 128 kts 240°
2026-05-07 13:40 33.11964 139.80003 406 ft 123 kts 242°
2026-05-07 13:40 33.11653 139.79086 302 ft 105 kts 251°
2026-05-07 13:41 33.11502 139.78595 305 ft 20 kts 249°
2026-05-07 13:41 33.11489 139.78555 304 ft 8 kts 250°
2026-05-07 13:41 33.11466 139.78472 303 ft 13 kts 253°
2026-05-07 13:41 33.11467 139.78367 301 ft 14 kts 309°
2026-05-07 13:42 33.11538 139.78342 301 ft 8 kts 20°
2026-05-07 13:42 33.11584 139.78333 303 ft 5 kts 339°
2026-05-07 13:42 33.11595 139.78328 302 ft 1 kts 339°
2026-05-07 13:42 33.11599 139.78326 302 ft 0 kts 339°
2026-05-07 13:43 33.11602 139.78324 301 ft 1 kts 339°
2026-05-07 13:43 33.11603 139.78324 301 ft 0 kts 339°